STARLINK-35205

Last updated on Mon Oct 20 2025 00:02:05 GMT+0000 (Coordinated Universal Time)

1 65679U 25212D 25292.24375187 -.00457595 00000+0 -12721-1 0 9992 2 65679 53.1597 282.9531 0000963 47.1580 312.9505 15.38175617 5530
UTC large
Height (km)
Speed (km/s)
/
Latitude / Longitude
Inclination (degrees)
Orbital Period (minutes)
Azimuth
Elevation
Range (km)
Doppler Factor

Next 0 passes for location: London (51.5072 / 0.1276)

Sorry there are no passes over London.